Location: Fauquembergues
(50.6005°N, 2.0987°E)
Time: 09:47:13
(UTC+00:00)

Meteor 1-19 Rocket - Pass Details

Date: 25 October 2020
Orbit: 809 x 926 km, 81.2° (Epoch: 28 November)

Event Time Altitude Azimuth Distance (km) Brightness Sun altitude
Exits shadow 02:47:31 12° 346° (NNW) 2,479 6.7 -35.4°
Drops below altitude 10° 02:48:09 10° 351° (N) 2,640 6.9 -35.3°
Sets 02:51:18 0° 7° (N) 3,587 7.8 -34.8°
